Location: Devore Heights
(34.2372°N, 117.4156°W)
Time: 00:32:47
(UTC+00:00)

Altair - Pass Details

Date: 20 September 2024
Orbit: 1501 x 1682 km, 47.2° (Epoch: 09 October)

Event Time Altitude Azimuth Distance (km) Brightness Sun altitude
Exits shadow 11:37:45 20° 301° (WNW) 3,211 8.8 -24.9°
Maximum altitude 11:44:14 39° 357° (N) 2,343 8.5 -23.7°
Drops below altitude 10° 11:53:34 10° 64° (ENE) 3,943 10.8 -21.8°
Sets 11:57:05 0° 72° (ENE) 4,923 11.7 -21.1°
